Weather History for St. Augustine, FL

Change the Weather History Date:

Saturday, January 4, 2014

  Actual Average Record
Temperature  
Mean Temperature 50 °F -  
Max Temperature 55 °F 62 °F 80 °F (2000)
Min Temperature 44 °F 44 °F 28 °F (1979)
Degree Days  
Heating Degree Days 16    
Moisture  
Dew Point 50 °F    
Average Humidity 91    
Maximum Humidity 97    
Minimum Humidity 77    
Precipitation  
Precipitation 0.00 in - - ()
Sea Level Pressure  
Sea Level Pressure 30.24 in    
Wind  
Wind Speed 12 mph (NNW)    
Max Wind Speed 21 mph    
Max Gust Speed 24 mph    
Visibility 5 miles    
Events      
Averages and records for this station are not official NWS values.
T = Trace of Precipitation, MM = Missing Value Source: NWS Daily Summary

Daily Weather History Graph

Daily Weather History Graph

Search for Another Location

Airport:

Trip Planner

Search our weather history database for the weather conditions in past years. The results will help you decide how hot, cold, wet, or windy it might be!

Date:

Astronomy

Jan. 04, 2014 Rise Set
Actual Time 7:21 AM EST 5:39 PM EST
Civil Twilight 6:55 AM EST 6:05 PM EST
Nautical Twilight 6:25 AM EST 6:35 PM EST
Astronomical Twilight 5:56 AM EST 7:04 PM EST
Moon 9:43 AM EST (1/4) 9:37 PM EST (1/4)
Length of Visible Light 11h 09m
Length of Day
10h 17m
Waxing Crescent, 15% of the Moon is Illuminated
Jan 4
Waxing Crescent
Jan 7
First Quarter
Jan 15
Full
Jan 24
Last Quarter
Jan 30
New

Hourly Weather History & Observations

Time (EST) Temp. Windchill Dew Point Humidity Pressure Visibility Wind Dir Wind Speed Gust Speed Precip Events Conditions
12:58 AM 54.0 °F - 46.9 °F 77% 30.27 in 10.0 mi NNE 13.8 mph - N/A   Overcast
1:58 AM 55.0 °F - 48.9 °F 80% 30.27 in 10.0 mi NNE 13.8 mph - N/A   Overcast
2:58 AM 51.1 °F - 45.0 °F 80% 30.26 in 10.0 mi West 5.8 mph - N/A   Mostly Cloudy
3:58 AM 45.0 °F 41.2 °F 41.0 °F 86% 30.25 in 10.0 mi WNW 6.9 mph - N/A   Partly Cloudy
4:58 AM 44.1 °F 39.0 °F 39.9 °F 85% 30.25 in 10.0 mi NW 9.2 mph - N/A   Scattered Clouds
5:58 AM 44.1 °F 39.0 °F 39.9 °F 85% 30.26 in 10.0 mi NNW 9.2 mph - N/A   Partly Cloudy
6:58 AM 45.0 °F 40.6 °F 42.1 °F 90% 30.27 in 10.0 mi NNW 8.1 mph - N/A   Mostly Cloudy
7:43 AM 46.4 °F 42.4 °F 44.6 °F 93% 30.29 in 10.0 mi NNW 8.1 mph - N/A   Overcast
7:58 AM 46.9 °F - 45.0 °F 93% 30.29 in 5.0 mi NW 9.2 mph - N/A   Overcast
8:02 AM 46.4 °F 41.9 °F 44.6 °F 93% 30.29 in 10.0 mi NW 9.2 mph - N/A   Overcast
8:58 AM 53.1 °F - 51.1 °F 93% 30.29 in 4.0 mi North 11.5 mph 20.7 mph N/A   Overcast
9:50 AM 55.4 °F - 51.8 °F 88% 30.31 in 3.0 mi North 13.8 mph - N/A   Overcast
9:58 AM 55.0 °F - 52.0 °F 89% 30.31 in 3.0 mi North 13.8 mph - N/A   Overcast
10:02 AM 55.4 °F - 51.8 °F 88% 30.31 in 7.0 mi North 13.8 mph - N/A   Overcast
10:07 AM 55.4 °F - 51.8 °F 88% 30.31 in 3.0 mi North 15.0 mph - N/A   Overcast
10:58 AM 55.0 °F - 52.0 °F 89% 30.29 in 3.0 mi North 17.3 mph 21.9 mph N/A   Overcast
11:02 AM 55.4 °F - 51.8 °F 88% 30.29 in 8.0 mi North 19.6 mph - N/A   Overcast
11:58 AM 55.0 °F - 52.0 °F 89% 30.26 in 3.0 mi North 16.1 mph - N/A   Overcast
12:47 PM 55.4 °F - 51.8 °F 88% 30.25 in 3.0 mi North 16.1 mph - N/A   Overcast
12:58 PM 55.9 °F - 53.1 °F 90% 30.24 in 3.0 mi North 20.7 mph 24.2 mph N/A   Overcast
1:02 PM 55.4 °F - 51.8 °F 88% 30.23 in 8.0 mi North 17.3 mph 24.2 mph N/A   Overcast
1:08 PM 55.4 °F - 51.8 °F 88% 30.23 in 3.0 mi North 17.3 mph - N/A   Overcast
1:48 PM 55.4 °F - 53.6 °F 94% 30.24 in 2.0 mi North 18.4 mph - N/A   Overcast
1:58 PM 55.0 °F - 53.1 °F 93% 30.24 in 2.0 mi North 17.3 mph 24.2 mph N/A   Overcast
2:02 PM 55.4 °F - 53.6 °F 94% 30.23 in 7.0 mi North 15.0 mph 24.2 mph N/A   Overcast
2:09 PM 55.4 °F - 51.8 °F 88% 30.23 in 2.0 mi North 18.4 mph 24.2 mph N/A   Overcast
2:58 PM 54.0 °F - 52.0 °F 93% 30.23 in 2.0 mi North 13.8 mph - N/A   Overcast
3:58 PM 54.0 °F - 52.0 °F 93% 30.21 in 2.0 mi North 12.7 mph - N/A   Overcast
4:58 PM 54.0 °F - 52.0 °F 93% 30.18 in 1.0 mi North 12.7 mph - N/A   Overcast
5:58 PM 54.0 °F - 52.0 °F 93% 30.21 in 1.0 mi North 12.7 mph - N/A   Overcast
6:02 PM 53.6 °F - 51.8 °F 94% 30.21 in 2.0 mi North 13.8 mph - N/A   Overcast
6:58 PM 54.0 °F - 53.1 °F 97% 30.21 in 2.0 mi North 13.8 mph - N/A   Overcast
7:58 PM 55.0 °F - 53.1 °F 93% 30.21 in 2.0 mi NNW 12.7 mph - N/A   Overcast
8:02 PM 55.4 °F - 53.6 °F 94% 30.21 in 3.0 mi NNW 10.4 mph - N/A   Overcast
8:18 PM 55.4 °F - 53.6 °F 94% 30.20 in 2.5 mi North 9.2 mph - N/A   Overcast
8:30 PM 55.4 °F - 53.6 °F 94% 30.21 in 3.0 mi NNW 9.2 mph - N/A   Overcast
8:58 PM 55.0 °F - 54.0 °F 96% 30.21 in 4.0 mi NNW 11.5 mph - N/A   Overcast
9:58 PM 55.0 °F - 54.0 °F 96% 30.19 in 5.0 mi North 9.2 mph - N/A   Overcast
10:58 PM 55.0 °F - 54.0 °F 96% 30.16 in 4.0 mi North 6.9 mph - N/A   Overcast
11:58 PM 55.9 °F - 55.0 °F 97% 30.12 in 4.0 mi NNW 6.9 mph - N/A   Overcast